timestamp,wind_dir_avg,wind_spd_avg,wind_spd_max_dir,wind_spd_gust,battery_voltage,lat,long
2022-06-28 00:04:00+00:00,212.0,6.64,213.0,7.29,13.13,47.59359,-54.27349
2022-06-28 00:14:01+00:00,212.0,7.85,221.0,9.49,12.57,47.59359,-54.27349
2022-06-28 00:24:01+00:00,208.0,7.44,209.0,8.21,12.57,47.59359,-54.27349
2022-06-28 00:34:01+00:00,315.0,0.01,229.0,0.0,12.57,47.59359,-54.27349
2022-06-28 00:44:01+00:00,206.0,7.49,208.0,8.0,12.57,47.59359,-54.27349
2022-06-28 00:54:01+00:00,199.0,6.85,204.0,7.79,12.57,47.59359,-54.27349
2022-06-28 01:04:01+00:00,197.0,6.89,201.0,7.87,12.57,47.59359,-54.27349
2022-06-28 01:14:01+00:00,178.0,6.02,199.0,6.74,12.49,47.59359,-54.27349
2022-06-28 01:24:01+00:00,181.0,5.73,169.0,6.29,12.49,47.59359,-54.27349
2022-06-28 01:34:01+00:00,182.0,5.77,180.0,6.73,12.49,47.59359,-54.27349
2022-06-28 01:44:01+00:00,180.0,6.71,178.0,7.38,12.49,47.59359,-54.27349
2022-06-28 01:54:01+00:00,196.0,6.3,203.0,7.37,12.49,47.59359,-54.27349
2022-06-28 02:04:01+00:00,199.0,6.6,211.0,8.02,12.49,47.59359,-54.27349
2022-06-28 02:14:01+00:00,173.0,6.76,170.0,7.58,12.41,47.59359,-54.27349
2022-06-28 02:24:01+00:00,172.0,6.03,179.0,6.73,12.41,47.59359,-54.27349
2022-06-28 02:34:01+00:00,186.0,5.92,206.0,6.98,12.41,47.59359,-54.27349
2022-06-28 02:44:01+00:00,191.0,5.62,214.0,7.7,12.41,47.59359,-54.27349
2022-06-28 02:54:01+00:00,210.0,7.16,231.0,10.42,12.41,47.59359,-54.27349
2022-06-28 03:04:01+00:00,225.0,8.84,233.0,11.22,12.41,47.59359,-54.27349
2022-06-28 03:14:01+00:00,215.0,7.21,232.0,11.3,12.41,47.59359,-54.27349
2022-06-28 03:24:01+00:00,214.0,7.47,219.0,8.72,12.41,47.59359,-54.27349
2022-06-28 03:34:01+00:00,209.0,7.54,215.0,8.82,12.41,47.59359,-54.27349
2022-06-28 03:44:01+00:00,204.0,8.48,204.0,9.36,12.41,47.59359,-54.27349
2022-06-28 03:54:01+00:00,209.0,8.16,226.0,10.83,12.41,47.59359,-54.27349
2022-06-28 04:04:01+00:00,225.0,9.44,233.0,12.44,12.41,47.59359,-54.27349
2022-06-28 04:14:00+00:00,220.0,7.6,234.0,11.37,12.41,47.59359,-54.27349
2022-06-28 04:24:00+00:00,210.0,7.55,208.0,8.27,12.41,47.59359,-54.27349
2022-06-28 04:34:00+00:00,211.0,8.21,222.0,9.76,12.41,47.59359,-54.27349
2022-06-28 04:44:00+00:00,208.0,8.24,219.0,9.73,12.41,47.59359,-54.27349
2022-06-28 04:54:00+00:00,210.0,7.84,215.0,9.57,12.41,47.59359,-54.27349
2022-06-28 05:04:00+00:00,204.0,7.39,206.0,8.44,12.41,47.59359,-54.27349
2022-06-28 05:14:00+00:00,222.0,10.65,228.0,12.98,12.41,47.59359,-54.27349
2022-06-28 05:24:00+00:00,215.0,10.26,224.0,12.97,12.41,47.59359,-54.27349
2022-06-28 05:34:00+00:00,211.0,9.85,227.0,12.12,12.41,47.59359,-54.27349
2022-06-28 05:44:00+00:00,225.0,11.51,226.0,12.96,12.41,47.59359,-54.27349
2022-06-28 05:54:00+00:00,218.0,11.57,224.0,13.99,12.41,47.59359,-54.27349
2022-06-28 06:04:00+00:00,223.0,12.21,224.0,13.97,12.41,47.59359,-54.27349
2022-06-28 06:14:00+00:00,224.0,11.4,228.0,13.39,12.41,47.59359,-54.27349
2022-06-28 06:24:00+00:00,228.0,11.59,232.0,12.98,12.41,47.59359,-54.27349
2022-06-28 06:34:00+00:00,228.0,10.23,231.0,11.88,12.41,47.59359,-54.27349
2022-06-28 06:44:00+00:00,215.0,10.92,225.0,13.11,12.41,47.59359,-54.27349
2022-06-28 06:54:00+00:00,202.0,9.45,205.0,11.39,12.41,47.59359,-54.27349
2022-06-28 07:04:00+00:00,212.0,9.03,226.0,10.75,12.41,47.59359,-54.27349
2022-06-28 07:14:01+00:00,216.0,9.67,230.0,12.43,12.33,47.59359,-54.27349
2022-06-28 07:24:01+00:00,226.0,11.89,225.0,13.58,12.33,47.59359,-54.27349
2022-06-28 07:34:01+00:00,227.0,11.81,230.0,13.85,12.33,47.59359,-54.27349
2022-06-28 07:44:01+00:00,221.0,10.6,227.0,12.57,12.33,47.59359,-54.27349
2022-06-28 07:54:01+00:00,228.0,11.51,230.0,13.21,12.33,47.59359,-54.27349
2022-06-28 08:04:01+00:00,233.0,10.7,236.0,12.14,12.33,47.59359,-54.27349
2022-06-28 08:14:01+00:00,232.0,9.62,238.0,11.67,12.33,47.59359,-54.27349
2022-06-28 08:24:01+00:00,237.0,10.64,239.0,12.12,12.33,47.59359,-54.27349
2022-06-28 08:34:01+00:00,239.0,10.43,243.0,11.97,12.33,47.59359,-54.27349
2022-06-28 08:44:01+00:00,227.0,9.31,231.0,11.79,12.33,47.59359,-54.27349
2022-06-28 08:54:01+00:00,222.0,8.1,235.0,11.07,12.33,47.59359,-54.27349
2022-06-28 09:04:01+00:00,228.0,10.67,231.0,12.27,12.33,47.59359,-54.27349
2022-06-28 09:14:01+00:00,211.0,8.75,226.0,10.55,12.33,47.59359,-54.27349
2022-06-28 09:24:01+00:00,208.0,8.22,209.0,9.21,12.33,47.59359,-54.27349
2022-06-28 09:34:01+00:00,210.0,8.62,227.0,11.31,12.33,47.59359,-54.27349
2022-06-28 09:44:01+00:00,221.0,10.43,227.0,13.25,12.33,47.59359,-54.27349
2022-06-28 09:54:01+00:00,225.0,11.15,227.0,12.7,12.33,47.59359,-54.27349
2022-06-28 10:04:01+00:00,228.0,9.91,232.0,11.75,12.33,47.59359,-54.27349
2022-06-28 10:14:01+00:00,222.0,9.57,232.0,12.55,12.65,47.59359,-54.27349
2022-06-28 10:24:01+00:00,222.0,9.87,230.0,12.52,12.65,47.59359,-54.27349
2022-06-28 10:34:01+00:00,219.0,9.99,233.0,12.19,12.65,47.59359,-54.27349
2022-06-28 10:44:01+00:00,216.0,9.12,230.0,11.28,12.65,47.59359,-54.27349
2022-06-28 10:54:01+00:00,208.0,7.25,206.0,8.41,12.65,47.59359,-54.27349
2022-06-28 11:04:01+00:00,207.0,8.69,221.0,10.46,12.65,47.59359,-54.27349
2022-06-28 11:14:01+00:00,216.0,9.29,228.0,12.16,13.21,47.59359,-54.27349
2022-06-28 11:24:01+00:00,216.0,9.53,228.0,12.12,13.21,47.59359,-54.27349
2022-06-28 11:34:01+00:00,228.0,11.09,228.0,12.93,13.21,47.59359,-54.27349
2022-06-28 11:44:01+00:00,223.0,11.03,227.0,13.51,13.21,47.59359,-54.27349
2022-06-28 11:54:01+00:00,223.0,10.77,229.0,12.71,13.21,47.59359,-54.27349
2022-06-28 12:04:01+00:00,214.0,8.79,228.0,11.98,13.21,47.59359,-54.27349
2022-06-28 12:14:01+00:00,209.0,8.77,224.0,10.86,13.6,47.59359,-54.27349
2022-06-28 12:24:01+00:00,206.0,7.75,205.0,8.93,13.6,47.59359,-54.27349
2022-06-28 12:34:01+00:00,206.0,8.28,206.0,9.11,13.6,47.59359,-54.27349
2022-06-28 12:44:01+00:00,212.0,9.56,227.0,12.66,13.6,47.59359,-54.27349
2022-06-28 12:54:01+00:00,211.0,9.74,228.0,12.01,13.6,47.59359,-54.27349
2022-06-28 13:04:01+00:00,214.0,10.66,223.0,13.33,13.6,47.59359,-54.27349
2022-06-28 13:14:01+00:00,209.0,10.51,222.0,13.69,13.68,47.59359,-54.27349
2022-06-28 13:24:01+00:00,214.0,11.13,223.0,14.19,13.68,47.59359,-54.27349
2022-06-28 13:34:01+00:00,222.0,12.34,222.0,14.41,13.68,47.59359,-54.27349
2022-06-28 13:44:01+00:00,216.0,12.0,219.0,13.71,13.68,47.59359,-54.27349
2022-06-28 13:54:01+00:00,217.0,12.33,218.0,13.83,13.68,47.59359,-54.27349
2022-06-28 14:04:01+00:00,220.0,12.18,224.0,13.54,13.68,47.59359,-54.27349
2022-06-28 14:14:01+00:00,220.0,12.99,221.0,14.66,13.6,47.59359,-54.27349
2022-06-28 14:24:01+00:00,219.0,12.34,223.0,14.03,13.6,47.59359,-54.27349
2022-06-28 14:34:01+00:00,208.0,10.48,220.0,12.7,13.6,47.59359,-54.27349
2022-06-28 14:44:01+00:00,212.0,10.91,221.0,13.12,13.6,47.59359,-54.27349
2022-06-28 14:54:01+00:00,213.0,12.22,219.0,14.05,13.6,47.59359,-54.27349
2022-06-28 15:04:01+00:00,208.0,11.66,219.0,13.54,13.6,47.59359,-54.27349
2022-06-28 15:14:00+00:00,205.0,11.29,216.0,12.89,13.68,47.59359,-54.27349
2022-06-28 15:24:00+00:00,211.0,11.45,219.0,13.64,13.68,47.59359,-54.27349
2022-06-28 15:34:00+00:00,218.0,12.74,221.0,14.41,13.68,47.59359,-54.27349
2022-06-28 15:44:00+00:00,216.0,12.9,209.0,14.85,13.68,47.59359,-54.27349
2022-06-28 15:54:00+00:00,209.0,11.28,221.0,13.51,13.68,47.59359,-54.27349
2022-06-28 16:04:00+00:00,210.0,11.83,223.0,13.65,13.68,47.59359,-54.27349
2022-06-28 16:14:01+00:00,212.0,12.28,216.0,14.39,14.32,47.59359,-54.27349
2022-06-28 16:24:01+00:00,210.0,12.61,220.0,14.54,14.32,47.59359,-54.27349
2022-06-28 16:34:01+00:00,213.0,14.09,214.0,15.97,14.32,47.59359,-54.27349
2022-06-28 16:44:01+00:00,216.0,13.92,216.0,15.71,14.32,47.59359,-54.27349
2022-06-28 16:54:01+00:00,214.0,14.32,210.0,16.08,14.32,47.59359,-54.27349
2022-06-28 17:04:01+00:00,214.0,13.91,214.0,15.76,14.32,47.59359,-54.27349
2022-06-28 17:14:01+00:00,213.0,14.25,216.0,15.72,14.24,47.59359,-54.27349
2022-06-28 17:24:01+00:00,214.0,13.56,212.0,15.21,14.24,47.59359,-54.27349
2022-06-28 17:34:01+00:00,216.0,13.41,217.0,15.26,14.24,47.59359,-54.27349
2022-06-28 17:44:01+00:00,217.0,13.42,216.0,15.32,14.24,47.59359,-54.27349
2022-06-28 17:54:01+00:00,216.0,13.1,215.0,14.83,14.24,47.59359,-54.27349
2022-06-28 18:04:01+00:00,215.0,13.27,215.0,14.64,14.24,47.59359,-54.27349
2022-06-28 18:14:01+00:00,215.0,13.62,215.0,15.24,13.84,47.59359,-54.27349
2022-06-28 18:24:01+00:00,216.0,13.2,217.0,15.09,13.84,47.59359,-54.27349
2022-06-28 18:34:01+00:00,212.0,13.52,216.0,14.77,13.84,47.59359,-54.27349
2022-06-28 18:44:01+00:00,211.0,13.04,217.0,15.39,13.84,47.59359,-54.27349
2022-06-28 18:54:01+00:00,212.0,14.24,214.0,15.67,13.84,47.59359,-54.27349
2022-06-28 19:04:01+00:00,211.0,13.7,203.0,16.54,13.84,47.59359,-54.27349
2022-06-28 19:14:00+00:00,216.0,12.34,217.0,14.98,13.68,47.59359,-54.27349
2022-06-28 19:24:00+00:00,218.0,12.4,214.0,13.79,13.68,47.59359,-54.27349
2022-06-28 19:34:00+00:00,217.0,12.94,215.0,14.45,13.68,47.59359,-54.27349
2022-06-28 19:44:00+00:00,218.0,12.35,219.0,13.76,13.68,47.59359,-54.27349
2022-06-28 19:54:00+00:00,216.0,13.06,220.0,14.22,13.68,47.59359,-54.27349
2022-06-28 20:04:00+00:00,217.0,13.38,222.0,14.6,13.68,47.59359,-54.27349
2022-06-28 20:14:01+00:00,217.0,13.24,219.0,14.12,13.68,47.59359,-54.27349
2022-06-28 20:24:01+00:00,216.0,12.97,216.0,15.33,13.68,47.59359,-54.27349
2022-06-28 20:34:01+00:00,217.0,13.14,218.0,14.61,13.68,47.59359,-54.27349
2022-06-28 20:44:01+00:00,220.0,12.89,222.0,14.27,13.68,47.59359,-54.27349
2022-06-28 20:54:01+00:00,220.0,12.4,218.0,14.94,13.68,47.59359,-54.27349
2022-06-28 21:04:01+00:00,219.0,12.2,221.0,13.78,13.68,47.59359,-54.27349
2022-06-28 21:14:01+00:00,223.0,12.46,224.0,13.71,13.68,47.59359,-54.27349
2022-06-28 21:24:01+00:00,223.0,11.55,226.0,13.04,13.68,47.59359,-54.27349
2022-06-28 21:34:01+00:00,222.0,12.06,222.0,13.51,13.68,47.59359,-54.27349
2022-06-28 21:44:01+00:00,219.0,12.69,221.0,14.31,13.68,47.59359,-54.27349
2022-06-28 21:54:01+00:00,219.0,11.99,223.0,13.45,13.68,47.59359,-54.27349
2022-06-28 22:04:01+00:00,219.0,10.08,227.0,12.29,13.68,47.59359,-54.27349
2022-06-28 22:14:00+00:00,220.0,9.81,231.0,12.43,13.44,47.59359,-54.27349
2022-06-28 22:24:00+00:00,215.0,8.9,230.0,11.22,13.44,47.59359,-54.27349
2022-06-28 22:34:00+00:00,219.0,9.94,229.0,12.46,13.44,47.59359,-54.27349
2022-06-28 22:44:00+00:00,226.0,11.37,226.0,13.02,13.44,47.59359,-54.27349
2022-06-28 22:54:00+00:00,226.0,11.48,227.0,13.21,13.44,47.59359,-54.27349
2022-06-28 23:04:00+00:00,224.0,10.16,231.0,12.54,13.44,47.59359,-54.27349
2022-06-28 23:14:00+00:00,222.0,9.87,231.0,12.28,13.05,47.59359,-54.27349
2022-06-28 23:24:00+00:00,213.0,7.27,207.0,8.42,13.05,47.59359,-54.27349
2022-06-28 23:34:00+00:00,217.0,6.08,216.0,6.67,13.05,47.59359,-54.27349
2022-06-28 23:44:00+00:00,212.0,6.49,216.0,7.9,13.05,47.59359,-54.27349
2022-06-28 23:54:00+00:00,213.0,6.92,218.0,7.96,13.05,47.59359,-54.27349
